Regional Weather Roundup
Issued by NWS

Home | Current Version | Previous Version | Text Only | Print | Product List | Glossary On
Versions: 1 2 3 4 5 6 7 8 9 10 11 12 13 14 15 16 17 18 19 20 21 22 23 24 25 26 27 28 29 30 31 32 33 34 35 36 37 38 39 40 41 42 43 44 45 46 47 48 49 50
000
ASUS43 KLSX 231507
RWRMO

WEATHER SUMMARY FOR MISSOURI
NATIONAL WEATHER SERVICE SPRINGFIELD MO
1000 AM CDT MON OCT 23 2017

NOTE: "FAIR" INDICATES FEW OR NO CLOUDS BELOW 12,000 FEET WITH NO
       SIGNIFICANT WEATHER AND/OR OBSTRUCTIONS TO VISIBILITY.
       CURRENT SKY AND/OR WEATHER CONDITIONS ARE NOT AVAILABLE FOR
       CHILLICOTHE AND FARMINGTON.

MOZ001>031-035>038-043-044-053-054-231600-
...NORTHERN AND WESTERN MISSOURI...

CITY           SKY/WX    TMP DP  RH WIND       PRES   REMARKS
KANSAS CTY INT PTSUNNY   54  42  64 W10       29.93S
KANSAS C DTWN  SUNNY     56  43  61 W10       29.93R
LEE`S SUMMIT   SUNNY     56  42  59 W15       29.93S
ST JOSEPH      MOSUNNY   56  42  59 NW14G20   29.95R
CHILLICOTHE      N/A     53  44  71 S6        29.92S
KIRKSVILLE     CLOUDY    50  46  86 SW7       29.89F

$$
MOZ066>068-077>081-088>096-101>105-231600-
...SOUTHWEST MISSOURI...

CITY           SKY/WX    TMP DP  RH WIND       PRES   REMARKS
SPRINGFIELD    SUNNY     56  45  66 SW7       30.00F
JOPLIN         SUNNY     63  44  50 S13       30.00F
BRANSON        SUNNY     54  43  66 SW8       30.04S

$$
MOZ032>034-039>042-045>050-055>058-069>072-231600-
...CENTRAL MISSOURI...

CITY           SKY/WX    TMP DP  RH WIND       PRES   REMARKS
COLUMBIA       SUNNY     56  45  66 SW9       29.93F
JEFFERSON CITY MOSUNNY   54  44  69 CALM      29.95F
ROLLA          SUNNY     53  47  79 W9        29.97S
SEDALIA        SUNNY     55  48  77 SW14      29.94F
WHITEMAN AFB   MOSUNNY   54  46  73 S13       29.88F
WARRENSBURG    SUNNY     52  43  71 S7        29.93F

$$
MOZ051-052-059>065-231600-
...EAST CENTRAL MISSOURI...

CITY           SKY/WX    TMP DP  RH WIND       PRES   REMARKS
ST LOUIS INTL  CLOUDY    55  49  80 NW8       29.93S
SPIRIT OF STL  LGT RAIN  55  51  86 W7        29.93S
ST CHARLES     CLOUDY    55  47  74 NW9       29.92S HAZE

$$
MOZ072>076-082>087-097>100-106>115-231600-
...SOUTH CENTRAL AND SOUTHEAST MISSOURI...

CITY           SKY/WX    TMP DP  RH WIND       PRES   REMARKS
CAPE GIRARDEAU CLOUDY    55  46  71 NW10      29.92R
FARMINGTON     CLOUDY    55  46  71 NW9       29.93F
POPLAR BLUFF   CLOUDY    56  48  74 NW3       29.95R
WEST PLAINS    SUNNY     57  43  59 W12G22    30.01R

$$



USA.gov is the U.S. government's official web portal to all federal, state and local government web resources and services.